DLH74A EDDV-EDDM

Flight info

Callsign DLH74A
Flight time 0h 52m
Altitude 29000
Route POVEL3H POVEL Z94 GALMA T703 LULAR T105 LANDU LANDU2B
Aircraft A20N/M-SDE2E3FGHIRWXY/LB1

Departure

Time 2026-05-06 17:29
Airport Hannover Airport (EDDV)

Arrival

Time 2026-05-06 18:21
Airport Munich Airport (EDDM)
Time Latitude Longitude Altitude Speed Heading
2026-05-06 16:50 52.45847 9.69325 178 ft 0 kts 47°
2026-05-06 17:17 52.45845 9.69322 178 ft 1 kts 48°
2026-05-06 17:17 52.45833 9.69306 178 ft 2 kts 27°
2026-05-06 17:17 52.45819 9.69298 178 ft 2 kts 12°
2026-05-06 17:17 52.45805 9.69295 178 ft 2 kts 355°
2026-05-06 17:18 52.45790 9.69300 178 ft 2 kts 339°
2026-05-06 17:18 52.45777 9.69312 178 ft 2 kts 322°
2026-05-06 17:18 52.45767 9.69328 178 ft 2 kts 306°
2026-05-06 17:18 52.45760 9.69349 178 ft 2 kts 289°
2026-05-06 17:19 52.45757 9.69368 178 ft 0 kts 276°
2026-05-06 17:19 52.45757 9.69379 178 ft 0 kts 274°
2026-05-06 17:22 52.45757 9.69375 178 ft 1 kts 274°
2026-05-06 17:22 52.45757 9.69361 178 ft 0 kts 274°
2026-05-06 17:22 52.45758 9.69348 178 ft 2 kts 274°
2026-05-06 17:22 52.45760 9.69308 178 ft 4 kts 274°
2026-05-06 17:23 52.45762 9.69248 178 ft 5 kts 271°
2026-05-06 17:23 52.45749 9.69178 178 ft 7 kts 232°
2026-05-06 17:23 52.45699 9.69149 178 ft 8 kts 188°
2026-05-06 17:23 52.45638 9.69128 178 ft 9 kts 218°
2026-05-06 17:24 52.45626 9.69019 178 ft 10 kts 273°
2026-05-06 17:24 52.45630 9.68885 177 ft 12 kts 273°
2026-05-06 17:24 52.45634 9.68739 177 ft 13 kts 272°
2026-05-06 17:24 52.45638 9.68586 177 ft 13 kts 272°
2026-05-06 17:25 52.45643 9.68427 178 ft 14 kts 272°
2026-05-06 17:25 52.45647 9.68264 178 ft 14 kts 272°
2026-05-06 17:25 52.45652 9.68098 178 ft 14 kts 272°
2026-05-06 17:25 52.45657 9.67927 179 ft 15 kts 274°
2026-05-06 17:26 52.45647 9.67769 179 ft 12 kts 241°
2026-05-06 17:26 52.45604 9.67712 179 ft 0 kts 199°
2026-05-06 17:26 52.45602 9.67711 179 ft 1 kts 198°
2026-05-06 17:27 52.45589 9.67709 179 ft 2 kts 178°
2026-05-06 17:27 52.45559 9.67707 179 ft 6 kts 184°
2026-05-06 17:27 52.45509 9.67716 179 ft 7 kts 138°
2026-05-06 17:27 52.45495 9.67780 179 ft 0 kts 91°
2026-05-06 17:28 52.45495 9.67782 179 ft 0 kts 91°
2026-05-06 17:28 52.45493 9.67859 179 ft 29 kts 92°
2026-05-06 17:28 52.45471 9.68646 177 ft 105 kts 92°
2026-05-06 17:28 52.45427 9.70185 218 ft 158 kts 92°
2026-05-06 17:29 52.45359 9.71951 826 ft 158 kts 91°
2026-05-06 17:29 52.45278 9.73726 1554 ft 158 kts 90°
2026-05-06 17:29 52.45186 9.75571 2101 ft 170 kts 89°
2026-05-06 17:29 52.45127 9.77547 2616 ft 183 kts 89°
2026-05-06 17:30 52.45063 9.79688 3187 ft 196 kts 90°
2026-05-06 17:30 52.45029 9.82038 3685 ft 215 kts 90°
2026-05-06 17:30 52.44987 9.84439 4547 ft 217 kts 92°
2026-05-06 17:30 52.44929 9.86918 5358 ft 222 kts 93°
2026-05-06 17:31 52.44859 9.89440 6212 ft 225 kts 94°
2026-05-06 17:31 52.44781 9.92012 6976 ft 231 kts 98°
2026-05-06 17:31 52.44420 9.94533 7701 ft 235 kts 114°
2026-05-06 17:31 52.43658 9.96975 8241 ft 249 kts 122°
2026-05-06 17:32 52.42753 9.99515 8721 ft 267 kts 122°
2026-05-06 17:32 52.41791 10.02180 9255 ft 283 kts 122°
2026-05-06 17:32 52.40786 10.04976 10028 ft 288 kts 122°
2026-05-06 17:32 52.39761 10.07846 10643 ft 300 kts 122°
2026-05-06 17:33 52.38680 10.10882 11034 ft 318 kts 122°
2026-05-06 17:33 52.37553 10.14052 11396 ft 336 kts 122°
2026-05-06 17:33 52.36348 10.17433 11832 ft 350 kts 122°
2026-05-06 17:33 52.35115 10.20905 12511 ft 356 kts 122°
2026-05-06 17:34 52.33866 10.24415 13241 ft 360 kts 122°
2026-05-06 17:34 52.32617 10.27924 13908 ft 364 kts 122°
2026-05-06 17:34 52.31334 10.31520 14574 ft 369 kts 122°
2026-05-06 17:34 52.30033 10.35158 15233 ft 374 kts 123°
2026-05-06 17:35 52.28734 10.38784 15859 ft 378 kts 123°
2026-05-06 17:35 52.27402 10.42501 16497 ft 382 kts 123°
2026-05-06 17:35 52.26053 10.46257 17108 ft 386 kts 123°
2026-05-06 17:36 52.23329 10.53828 18311 ft 394 kts 123°
2026-05-06 17:36 52.21934 10.57694 18905 ft 398 kts 123°
2026-05-06 17:36 52.20526 10.61596 19472 ft 402 kts 123°
2026-05-06 17:36 52.19122 10.65478 20034 ft 405 kts 124°
2026-05-06 17:37 52.17683 10.69444 20615 ft 409 kts 124°
2026-05-06 17:37 52.16232 10.73442 21179 ft 412 kts 124°
2026-05-06 17:37 52.14788 10.77411 21729 ft 415 kts 125°
2026-05-06 17:37 52.13083 10.81172 22274 ft 413 kts 137°
2026-05-06 17:38 52.10958 10.84268 22820 ft 410 kts 148°
2026-05-06 17:38 52.08551 10.86640 23367 ft 408 kts 156°
2026-05-06 17:38 52.06039 10.88804 23916 ft 410 kts 156°
2026-05-06 17:38 52.03504 10.90955 24438 ft 412 kts 157°
2026-05-06 17:39 52.00993 10.93095 24953 ft 414 kts 157°
2026-05-06 17:39 51.98434 10.95284 25437 ft 417 kts 157°
2026-05-06 17:39 51.95862 10.97495 25911 ft 419 kts 156°
2026-05-06 17:39 51.93277 10.99717 26348 ft 422 kts 156°
2026-05-06 17:40 51.90712 11.01923 26759 ft 425 kts 157°
2026-05-06 17:40 51.88101 11.04168 27253 ft 425 kts 157°
2026-05-06 17:40 51.85492 11.06409 27775 ft 424 kts 157°
2026-05-06 17:40 51.82913 11.08616 28083 ft 426 kts 157°
2026-05-06 17:41 51.80292 11.10857 28357 ft 427 kts 157°
2026-05-06 17:41 51.77667 11.13099 28626 ft 427 kts 157°
2026-05-06 17:41 51.75038 11.15343 28774 ft 428 kts 157°
2026-05-06 17:41 51.72447 11.17552 28773 ft 427 kts 157°
2026-05-06 17:42 51.67205 11.22013 28777 ft 425 kts 157°
2026-05-06 17:42 51.61991 11.26435 28778 ft 424 kts 157°
2026-05-06 17:43 51.56799 11.30829 28765 ft 424 kts 157°
2026-05-06 17:43 51.51620 11.35202 28761 ft 423 kts 157°
2026-05-06 17:44 51.46402 11.39597 28758 ft 422 kts 157°
2026-05-06 17:44 51.41196 11.43970 28759 ft 423 kts 157°
2026-05-06 17:45 51.36014 11.48300 28758 ft 423 kts 157°
2026-05-06 17:45 51.30817 11.52623 28754 ft 422 kts 157°
2026-05-06 17:46 51.25603 11.56951 28754 ft 421 kts 157°
2026-05-06 17:46 51.20430 11.61238 28753 ft 422 kts 157°
2026-05-06 17:47 51.15206 11.65399 28748 ft 418 kts 163°
2026-05-06 17:47 51.09697 11.67808 28732 ft 410 kts 176°
2026-05-06 17:48 51.04024 11.68392 28739 ft 407 kts 181°
2026-05-06 17:48 50.98389 11.68701 28753 ft 408 kts 181°
2026-05-06 17:49 50.92718 11.69013 28752 ft 408 kts 181°
2026-05-06 17:49 50.87080 11.69323 28751 ft 407 kts 181°
2026-05-06 17:50 50.81460 11.69632 28748 ft 406 kts 181°
2026-05-06 17:50 50.75811 11.69948 28750 ft 405 kts 180°
2026-05-06 17:51 50.73001 11.70509 28732 ft 411 kts 169°
2026-05-06 17:51 50.70331 11.72026 28752 ft 414 kts 163°
2026-05-06 17:51 50.64984 11.75420 28754 ft 414 kts 162°
2026-05-06 17:52 50.59675 11.78769 28751 ft 414 kts 163°
2026-05-06 17:52 50.54348 11.82098 28755 ft 415 kts 163°
2026-05-06 17:53 50.48983 11.85431 28752 ft 414 kts 163°
2026-05-06 17:53 50.43667 11.88726 28751 ft 413 kts 163°
2026-05-06 17:54 50.38308 11.92039 28767 ft 413 kts 163°
2026-05-06 17:54 50.32987 11.95326 28761 ft 414 kts 163°
2026-05-06 17:55 50.27682 11.98590 28763 ft 412 kts 163°
2026-05-06 17:55 50.22337 12.01872 28760 ft 412 kts 163°
2026-05-06 17:56 50.17037 12.05118 28759 ft 411 kts 163°
2026-05-06 17:56 50.11703 12.08378 28749 ft 411 kts 162°
2026-05-06 17:57 50.06415 12.11606 28746 ft 411 kts 163°
2026-05-06 17:57 50.01086 12.14847 28747 ft 410 kts 163°
2026-05-06 17:58 49.95789 12.18062 28742 ft 411 kts 163°
2026-05-06 17:58 49.90495 12.21273 28682 ft 412 kts 162°
2026-05-06 17:59 49.87798 12.22904 28408 ft 413 kts 162°
2026-05-06 17:59 49.85155 12.24503 28152 ft 414 kts 162°
2026-05-06 17:59 49.82468 12.26123 27871 ft 414 kts 162°
2026-05-06 17:59 49.79785 12.27741 27592 ft 413 kts 162°
2026-05-06 18:00 49.77112 12.29346 27322 ft 411 kts 162°
2026-05-06 18:00 49.74516 12.31042 26958 ft 411 kts 158°
2026-05-06 18:00 49.71986 12.33122 26752 ft 413 kts 153°
2026-05-06 18:00 49.69555 12.35535 26750 ft 417 kts 148°
2026-05-06 18:01 49.67244 12.38159 26752 ft 418 kts 149°
2026-05-06 18:01 49.64688 12.40152 26523 ft 407 kts 167°
2026-05-06 18:01 49.61911 12.40772 26271 ft 402 kts 176°
2026-05-06 18:01 49.59138 12.41219 25870 ft 398 kts 175°
2026-05-06 18:02 49.56436 12.41713 25201 ft 397 kts 175°
2026-05-06 18:02 49.53699 12.42248 24467 ft 396 kts 174°
2026-05-06 18:02 49.50975 12.42803 23797 ft 394 kts 174°
2026-05-06 18:02 49.48306 12.43362 23193 ft 391 kts 174°
2026-05-06 18:03 49.45620 12.43933 22594 ft 389 kts 174°
2026-05-06 18:03 49.42951 12.44500 21987 ft 386 kts 174°
2026-05-06 18:03 49.40295 12.45066 21374 ft 384 kts 174°
2026-05-06 18:03 49.37695 12.45627 20822 ft 381 kts 174°
2026-05-06 18:04 49.35077 12.46112 20251 ft 377 kts 180°
2026-05-06 18:04 49.32493 12.45767 19637 ft 372 kts 191°
2026-05-06 18:04 49.29995 12.45063 19066 ft 369 kts 193°
2026-05-06 18:04 49.27480 12.44327 18499 ft 367 kts 192°
2026-05-06 18:05 49.24976 12.43624 17931 ft 365 kts 192°
2026-05-06 18:05 49.22517 12.42962 17371 ft 363 kts 192°
2026-05-06 18:05 49.20039 12.42314 16873 ft 359 kts 191°
2026-05-06 18:05 49.17581 12.41686 16340 ft 357 kts 191°
2026-05-06 18:06 49.15140 12.41070 15805 ft 354 kts 191°
2026-05-06 18:06 49.12746 12.40473 15271 ft 352 kts 191°
2026-05-06 18:06 49.10338 12.39874 14763 ft 349 kts 191°
2026-05-06 18:06 49.07945 12.39283 14198 ft 348 kts 190°
2026-05-06 18:07 49.05563 12.38697 13672 ft 346 kts 190°
2026-05-06 18:07 49.03229 12.38120 13147 ft 344 kts 190°
2026-05-06 18:07 49.00871 12.37542 12590 ft 343 kts 190°
2026-05-06 18:07 48.98519 12.36967 12058 ft 341 kts 190°
2026-05-06 18:08 48.96211 12.36402 11533 ft 340 kts 190°
2026-05-06 18:08 48.93884 12.35833 11018 ft 338 kts 190°
2026-05-06 18:08 48.91569 12.35266 10509 ft 335 kts 190°
2026-05-06 18:08 48.89296 12.34713 10193 ft 327 kts 190°
2026-05-06 18:09 48.87106 12.34180 9996 ft 316 kts 190°
2026-05-06 18:09 48.84969 12.33659 9808 ft 305 kts 190°
2026-05-06 18:09 48.82903 12.33153 9615 ft 295 kts 190°
2026-05-06 18:09 48.80904 12.32659 9442 ft 286 kts 191°
2026-05-06 18:10 48.78985 12.32199 9147 ft 281 kts 190°
2026-05-06 18:10 48.77068 12.31748 8654 ft 278 kts 190°
2026-05-06 18:10 48.75159 12.31319 7982 ft 279 kts 190°
2026-05-06 18:10 48.73260 12.30904 7311 ft 279 kts 190°
2026-05-06 18:11 48.71326 12.30501 6779 ft 281 kts 191°
2026-05-06 18:11 48.69393 12.30122 6385 ft 279 kts 190°
2026-05-06 18:11 48.67490 12.29756 5985 ft 279 kts 189°
2026-05-06 18:11 48.65565 12.29387 5610 ft 278 kts 190°
2026-05-06 18:12 48.63658 12.28979 5246 ft 275 kts 193°
2026-05-06 18:12 48.61812 12.28443 4962 ft 272 kts 195°
2026-05-06 18:12 48.59940 12.27874 4930 ft 275 kts 195°
2026-05-06 18:12 48.58061 12.27304 4935 ft 275 kts 196°
2026-05-06 18:13 48.56181 12.26740 4939 ft 275 kts 195°
2026-05-06 18:13 48.54323 12.26182 4942 ft 275 kts 195°
2026-05-06 18:13 48.52447 12.25628 4944 ft 274 kts 195°
2026-05-06 18:13 48.50573 12.25079 4945 ft 274 kts 195°
2026-05-06 18:14 48.48722 12.24532 4816 ft 274 kts 195°
2026-05-06 18:14 48.46856 12.23998 4567 ft 271 kts 195°
2026-05-06 18:14 48.45022 12.23405 4311 ft 265 kts 205°
2026-05-06 18:14 48.43523 12.21970 4059 ft 249 kts 229°
2026-05-06 18:15 48.42372 12.20151 3959 ft 235 kts 233°
2026-05-06 18:15 48.41312 12.18338 3955 ft 229 kts 234°
2026-05-06 18:15 48.40270 12.16522 3953 ft 228 kts 238°
2026-05-06 18:15 48.39479 12.14564 3947 ft 213 kts 251°
2026-05-06 18:16 48.39039 12.12517 3951 ft 199 kts 261°
2026-05-06 18:16 48.38842 12.10500 3955 ft 193 kts 267°
2026-05-06 18:16 48.38729 12.08507 3963 ft 194 kts 268°
2026-05-06 18:16 48.38605 12.06489 3956 ft 190 kts 266°
2026-05-06 18:17 48.38467 12.04563 3948 ft 182 kts 266°
2026-05-06 18:17 48.38322 12.02698 3965 ft 181 kts 265°
2026-05-06 18:17 48.38175 12.00886 3954 ft 167 kts 266°
2026-05-06 18:17 48.38036 11.99172 3709 ft 162 kts 266°
2026-05-06 18:18 48.37902 11.97526 3465 ft 152 kts 266°
2026-05-06 18:18 48.37781 11.96046 3275 ft 136 kts 266°
2026-05-06 18:18 48.37674 11.94702 3069 ft 125 kts 266°
2026-05-06 18:18 48.37572 11.93407 2906 ft 124 kts 265°
2026-05-06 18:19 48.37471 11.92138 2758 ft 123 kts 265°
2026-05-06 18:19 48.37370 11.90851 2601 ft 123 kts 264°
2026-05-06 18:19 48.37270 11.89570 2442 ft 123 kts 263°
2026-05-06 18:19 48.37170 11.88312 2289 ft 122 kts 264°
2026-05-06 18:20 48.37072 11.87049 2103 ft 122 kts 262°
2026-05-06 18:20 48.36960 11.85773 1954 ft 123 kts 264°
2026-05-06 18:20 48.36872 11.84492 1775 ft 123 kts 261°
2026-05-06 18:20 48.36764 11.83231 1622 ft 123 kts 263°
2026-05-06 18:21 48.36672 11.81935 1473 ft 125 kts 263°
2026-05-06 18:21 48.36585 11.80774 1459 ft 90 kts 263°
2026-05-06 18:21 48.36532 11.80098 1462 ft 45 kts 263°
2026-05-06 18:21 48.36455 11.79719 1465 ft 33 kts 238°
2026-05-06 18:22 48.36345 11.79488 1466 ft 2 kts 233°
2026-05-06 18:22 48.36344 11.79486 1466 ft 0 kts 233°
2026-05-06 18:22 48.36341 11.79480 1466 ft 1 kts 233°
2026-05-06 18:22 48.36324 11.79445 1467 ft 6 kts 233°
2026-05-06 18:23 48.36285 11.79370 1467 ft 10 kts 232°
2026-05-06 18:23 48.36234 11.79302 1468 ft 10 kts 206°
2026-05-06 18:23 48.36165 11.79301 1469 ft 10 kts 172°
2026-05-06 18:23 48.36095 11.79317 1469 ft 10 kts 173°
2026-05-06 18:24 48.36024 11.79328 1470 ft 10 kts 173°
2026-05-06 18:24 48.35975 11.79336 1470 ft 0 kts 174°
2026-05-06 18:24 48.35972 11.79337 1470 ft 1 kts 174°
2026-05-06 18:25 48.35944 11.79345 1470 ft 5 kts 164°
2026-05-06 18:25 48.35896 11.79374 1470 ft 9 kts 165°
2026-05-06 18:25 48.35821 11.79391 1471 ft 11 kts 174°
2026-05-06 18:25 48.35735 11.79404 1472 ft 12 kts 173°
2026-05-06 18:26 48.35641 11.79420 1473 ft 14 kts 175°
2026-05-06 18:26 48.35541 11.79439 1473 ft 15 kts 173°
2026-05-06 18:26 48.35431 11.79458 1474 ft 16 kts 174°
2026-05-06 18:26 48.35318 11.79478 1474 ft 12 kts 174°
2026-05-06 18:27 48.35233 11.79493 1475 ft 13 kts 173°
2026-05-06 18:27 48.35168 11.79504 1475 ft 8 kts 173°
2026-05-06 18:27 48.35121 11.79466 1475 ft 9 kts 254°
2026-05-06 18:27 48.35115 11.79410 1476 ft 3 kts 262°
2026-05-06 18:28 48.35113 11.79373 1476 ft 3 kts 264°
2026-05-06 18:28 48.35111 11.79353 1476 ft 0 kts 264°